Location: Helds Island Access
(38.5526°N, 91.5997°W)
Time: 22:41:56
(UTC-05:00)

Daily predictions for brighter satellites

Satellite Brightness Start Highest point End
(mag) Time Altitude Azimuth Time Altitude Azimuth Time Altitude Azimuth
Cosmos 1980 Rocket 3.9 20:12:23 10° SW 20:17:42 40° WNW 20:23:05 10° N
COSMOS 2428 4.5 20:18:15 10° ESE 20:19:31 11° E 20:20:46 10° E
USA 234 4.5 20:14:17 10° E 20:19:48 30° NNE 20:25:19 10° NNW
Intercosmos 25 Rocket 3.8 20:17:47 10° SSE 20:20:43 33° E 20:24:25 10° NNE
Envisat 4.1 20:18:44 10° SE 20:22:58 28° ENE 20:27:14 10° N
Cosmos 1869 3.2 20:20:16 10° S 20:24:11 81° E 20:28:09 10° N
Lacrosse 4 Rocket 1.5 20:21:15 10° NNW 20:25:37 77° ENE 20:30:01 10° SSE
Cosmos 2242 Rocket 3.7 20:22:05 10° S 20:26:29 56° E 20:30:52 10° NNE
Cosmos 1408 2.9 20:23:00 10° N 20:26:33 44° E 20:30:02 10° SSE
Milstar 3 3.9 20:18:31 10° WSW 20:27:18 39° SSW 20:33:34 10° SE
Helios 1B rocket 3.3 20:24:19 10° NE 20:27:55 29° E 20:31:29 10° SSE
ATLAS 5 CENTAUR R/B 3.2 20:24:02 10° NNW 20:29:35 37° NE 20:35:32 10° ESE
SEDSat Delta rocket 4.1 20:28:23 10° WSW 20:32:54 38° S 20:37:59 10° ESE
Cosmos 2195 Rocket 4.5 20:26:49 10° N 20:32:55 70° E 20:39:04 10° SSE
SJ-6B 4.4 20:30:14 10° SSW 20:33:55 38° W 20:37:43 10° NNW
Cosmos 2279 Rocket 4.2 20:28:21 10° SSE 20:34:21 52° E 20:40:21 10° NNE
Cosmos 2322 4.4 20:29:37 10° SSE 20:34:35 31° ESE 20:39:33 10° NE
ERBS 4.1 20:32:38 10° WNW 20:35:39 28° SW 20:38:40 10° S
Cosmos 1627 Rocket 4.5 20:30:41 10° N 20:36:53 74° E 20:42:59 10° SSE
SL-16 R/B 2.5 20:34:03 10° SSW 20:39:42 76° WNW 20:45:24 10° NNE
Sakura Rocket 4.5 20:42:04 10° SSW 20:44:29 16° SSE 20:46:24 12° SE
ERS-1 Rocket 4.4 20:42:02 11° ESE 20:45:24 21° ENE 20:49:08 10° NNE
CZ-2D R/B 3.4 20:42:05 10° S 20:45:58 78° WSW 20:49:52 10° NNW
Resurs 01 Rocket 2.2 20:45:05 10° S 20:49:28 60° W 20:53:53 10° NNW
ORS 1 (USA 231) 4.4 20:53:54 10° WNW 20:56:59 77° SSW 20:58:49 22° ESE
YAOGAN 6 3.9 20:58:12 18° ESE 20:59:43 24° ENE 21:02:39 10° NNE
Cosmos 1844 Rocket 4.3 20:55:57 10° N 20:59:46 18° NE 21:02:44 13° E
Cosmos 1908 Rocket 4.3 20:56:35 10° NNE 21:00:31 33° ENE 21:02:59 19° SE
USA 229 DEB 3.7 20:56:12 10° SSW 21:02:49 56° ESE 21:09:33 10° NE
USA 229 3.7 20:56:20 10° SSW 21:02:55 56° ESE 21:09:39 10° NE
OAO 3 Rocket 3.7 20:59:56 10° W 21:04:37 48° S 21:07:40 20° SE
Cosmos 1933 3.3 21:01:09 10° S 21:05:11 87° E 21:09:14 10° N
Cosmos 2180 Rocket 4.5 20:59:04 10° S 21:05:25 77° E 21:11:45 10° N
Sich 1 Rocket 4.1 21:02:45 10° N 21:07:00 40° ENE 21:09:37 21° SE
Meteor 2-10 Rocket 3.7 21:08:02 10° S 21:13:48 68° E 21:19:32 10° NNE
Cosmos 1733 Rocket 3.5 21:12:52 10° NNW 21:17:17 62° W 21:21:40 10° S
Helios 1A 3.4 21:15:38 10° S 21:19:49 65° WSW 21:24:03 10° NNW
Cosmos 2219 Rocket 3.3 21:20:01 22° ESE 21:20:05 22° E 21:24:15 10° NE
Cosmos 1862 4.0 21:17:13 10° NNW 21:21:10 53° W 21:25:06 10° S
Okean 1-7 3.8 21:21:00 28° ESE 21:22:12 33° E 21:26:10 10° NNE
Cosmos 1782 4.3 21:30:22 21° ENE 21:30:22 21° ENE 21:32:45 10° NE
Okean 2 Rocket 4.0 21:26:14 10° NNE 21:30:13 30° ENE 21:30:55 29° E
Meteor 1-26 Rocket 4.2 21:27:29 10° S 21:33:10 84° E 21:38:59 10° N
USA 186 4.4 21:35:45 10° SW 21:37:26 15° W 21:39:12 10° NW
Cosmos 1939 Rocket 3.6 21:39:18 20° S 21:41:56 51° W 21:45:50 10° NNW
Cosmos 2263 Rocket 3.2 21:37:15 10° NW 21:42:28 43° WSW 21:46:54 14° S
Terra 3.9 21:45:02 13° ENE 21:45:08 13° ENE 21:47:09 10° NE
Cosmos 968 Rocket 3.6 21:41:13 10° NNW 21:46:25 73° WSW 21:49:07 29° S
Cosmos 1703 Rocket 3.6 21:43:26 19° S 21:46:34 82° W 21:51:01 10° N
Cosmos 2237 4.3 21:47:44 10° SSW 21:53:28 80° WNW 21:59:14 10° NNE
Atlas Centaur 2 3.2 21:53:28 10° WSW 21:59:57 45° S 22:02:01 37° SE
Cosmos 2360 Rocket 3.5 21:55:22 10° SW 22:00:40 41° WNW 22:06:02 10° N
MetOp-B 4.0 21:59:17 46° SSE 22:00:55 75° ENE 22:06:16 10° N
USA 234 3.2 21:59:28 38° SE 22:02:15 87° NE 22:08:49 10° NW
COSMOS 2428 2.6 21:57:12 10° SSW 22:02:53 88° WNW 22:08:38 10° NNE
Meteor 1-10 Rocket 4.3 22:06:13 47° SSE 22:07:39 61° E 22:13:26 10° NNE
Cosmos 2266 Rocket 4.2 22:01:45 10° NNW 22:08:01 69° W 22:11:42 26° S
H-2A R/B 2.5 22:09:10 40° ENE 22:09:14 40° ENE 22:13:49 10° N
Cosmos 1867 4.3 22:04:30 10° NW 22:09:42 46° WSW 22:11:34 33° SSW
MOS 1-B Rocket 3.8 22:09:35 49° SE 22:11:04 68° ENE 22:16:39 10° N
Cosmos 2221 Rocket 4.1 22:09:27 31° SSW 22:11:20 58° W 22:15:44 10° N
YAOGAN 11 3.9 22:11:08 77° S 22:11:27 88° WSW 22:15:49 10° NNW
NOAA 11 4.2 22:10:51 46° S 22:12:33 83° WSW 22:18:04 10° NNW
ATLAS 5 CENTAUR R/B 3.3 22:08:39 10° NW 22:14:23 42° WSW 22:17:15 27° SSW
Cosmos 1606 3.8 22:17:05 35° NNE 22:17:05 35° NNE 22:19:25 10° NNE
Cosmos 1844 3.8 22:10:14 10° NNW 22:15:49 56° ENE 22:16:28 52° E
NOSS 0 Rocket 4.1 22:16:17 47° E 22:16:17 47° E 22:21:51 10° NE
ARGOS 3.0 22:19:00 63° SSE 22:19:54 85° ENE 22:25:18 10° NNW
Meteor 1-25 Rocket 4.3 22:15:54 10° NNW 22:21:26 69° W 22:23:01 46° SSW
Cosmos 1570 Rocket 3.8 22:22:48 73° ESE 22:22:51 73° ESE 22:28:07 10° NNE
ERS-1 Rocket 3.9 22:22:02 30° SW 22:23:52 42° W 22:28:38 10° NNW
SeaSat 1 2.6 22:24:45 58° ENE 22:24:49 58° ENE 22:29:41 10° NNW
H-2A R/B 3.4 22:31:01 30° NE 22:31:01 30° NE 22:33:47 10° N
Meteor 1-20 Rocket 4.4 22:25:24 10° NNW 22:30:58 65° W 22:32:18 49° SSW
Cosmos 2208 Rocket 3.9 22:33:32 82° E 22:33:32 82° E 22:38:49 10° NNE
Cosmos 1244 Rocket 4.4 22:28:55 10° N 22:35:13 90° ENE 22:36:21 63° S
SL-08 RB Rocket 3.9 22:39:25 67° WNW 22:39:25 67° WNW 22:43:34 10° NNW
Cosmos 2237 Rocket 2.6 22:40:20 48° ENE 22:40:20 48° ENE 22:44:39 10° NNE
SPOT 5 3.2 22:39:14 56° WSW 22:39:20 56° W 22:43:54 10° NNW
Cosmos 1553 Rocket 3.8 22:41:44 71° ESE 22:42:00 72° E 22:48:12 10° NNE
Cosmos 2333 Rocket 2.1 22:41:58 80° SSW 22:42:18 89° ESE 22:48:06 10° NNE
SL-08 R/B 4.4 22:37:56 10° N 22:44:02 67° E 22:44:04 67° E
Cosmos 1844 Rocket 2.8 22:38:36 10° NNW 22:44:07 64° WSW 22:44:25 63° SW
Meteor 2-6 Rocket 4.5 22:43:45 53° SW 22:45:05 72° W 22:51:04 10° N
Cosmos 2278 Rocket 2.5 22:40:14 10° NNW 22:45:29 53° NE 22:45:29 53° NE
NOSS 3-1 (C) 3.6 22:41:31 10° SW 22:47:12 66° NW 22:53:35 10° NNE
Gbstr 26 Del rocket 4.3 22:45:55 10° SW 22:53:36 76° SE 23:01:45 10° NE
ASTEX 1 3.9 22:54:58 56° N 22:54:58 56° N 22:58:54 10° N
CZ-4C R/B 3.0 22:48:44 10° NNW 22:55:52 62° NE 22:57:01 56° E
SPOT 1/Viking Rocket 3.9 22:57:12 57° W 22:57:12 57° W 23:02:12 10° NNW
Cosmos 1898 Rocket 4.3 22:52:28 10° N 22:56:24 41° NNE 22:56:24 41° NNE
Cosmos 2219 Rocket 3.0 23:01:36 33° WSW 23:03:38 48° WNW 23:09:04 10° NNE
NOSS 3-1 (A) 3.6 23:02:34 52° WSW 23:03:54 68° NW 23:10:19 10° NNE
ATLAS 2AS CENTAUR R/B 4.2 23:08:09 26° ENE 23:08:09 26° ENE 23:12:07 10° NE
S3M 4.1 23:13:06 68° W 23:13:17 68° W 23:19:29 10° N
Terra 3.0 23:23:55 40° NNW 23:23:55 40° NNW 23:27:01 10° NNW
ATLAS 3B R/B 4.1 23:28:22 10° NNW 23:33:59 26° NE 23:35:09 25° ENE
H-2A R/B 4.3 23:18:00 10° W 23:43:21 38° SW 23:43:21 38° SW
H-2A R/B 4.0 23:49:47 20° WNW 23:49:47 20° WNW 23:52:28 10° NW
